Location: Unspecified
(43.4680°N, 87.1740°E)
Time: 13:46:58
(UTC+00:00)

Cosmos 1356 Rocket - Pass Details

Date: 04 August 2021
Orbit: 543 x 597 km, 81.2° (Epoch: 19 September)

Event Time Altitude Azimuth Distance (km) Brightness Sun altitude
Exits shadow 20:19:37 24° 305° (NW) 1,144 4.9 -23.4°
Drops below altitude 10° 20:22:19 10° 346° (NNW) 1,819 6.5 -23.1°
Sets 20:24:46 0° 359° (N) 2,718 7.7 -22.9°
